Morganton, NC

8:42 AM EDT on September 21, 2017 (GMT -0400)
Morganton-Lenoir

Weather History for KMRN - November, 2013

Change the Weather History Date:

Friday, November 1, 2013

  Actual Average (KHKY) Record (KHKY)
Temperature  
Mean Temperature 63 °F -  
Max Temperature 73 °F 66 °F 83 °F (1950)
Min Temperature 53 °F 46 °F 29 °F (1954)
Degree Days  
Heating Degree Days 2    
Growing Degree Days 13 (Base 50)    
Moisture  
Dew Point 59 °F    
Average Humidity 81    
Maximum Humidity 100    
Minimum Humidity 54    
Precipitation  
Precipitation 0.00 in - - ()
Sea Level Pressure  
Sea Level Pressure 29.80 in    
Wind  
Wind Speed 7 mph (SSW)    
Max Wind Speed 16 mph    
Max Gust Speed 25 mph    
Visibility 10 miles    
Events Rain    
Averages and records for this station are not official NWS values.
T = Trace of Precipitation, MM = Missing Value Source: NWS Daily Summary

Daily Weather History Graph

Daily Weather History Graph

Search for Another Location

Airport or City:

Trip Planner

Search our weather history database for the weather conditions in past years. The results will help you decide how hot, cold, wet, or windy it might be!

Date:

Astronomy

Nov. 01, 2013 Rise Set
Actual Time 7:48 AM EDT 6:30 PM EDT
Civil Twilight 7:22 AM EDT 6:57 PM EDT
Nautical Twilight 6:52 AM EDT 7:27 PM EDT
Astronomical Twilight 6:22 AM EDT 7:57 PM EDT
Moon 5:43 AM EDT (11/1) 5:20 PM EDT (11/1)
Length of Visible Light 11h 34m
Length of Day
10h 41m
Waning Crescent, 4% of the Moon is Illuminated
Nov 1
Waning Crescent
Nov 3
New
Nov 10
First Quarter
Nov 17
Full
Nov 25
Last Quarter

Hourly Weather History & Observations

Time (EDT) Temp. Dew Point Humidity Pressure Visibility Wind Dir Wind Speed Gust Speed Precip Events Conditions
12:15 AM 67.1 °F 60.3 °F 79% 29.91 in 10.0 mi South 5.8 mph - N/A   Overcast
12:35 AM 68.0 °F 60.6 °F 77% 29.90 in 10.0 mi South 10.4 mph 17.3 mph N/A   Overcast
12:55 AM 68.4 °F 60.4 °F 76% 29.87 in 10.0 mi SSE 10.4 mph 24.2 mph N/A Rain Light Rain
1:15 AM 66.2 °F 61.9 °F 86% 29.87 in 10.0 mi South 8.1 mph - N/A Rain Light Rain
1:35 AM 68.5 °F 59.4 °F 72% 29.88 in 10.0 mi SSW 11.5 mph 19.6 mph N/A   Overcast
1:55 AM 69.4 °F 58.3 °F 68% 29.86 in 10.0 mi South 12.7 mph 21.9 mph N/A   Overcast
2:15 AM 69.6 °F 58.5 °F 68% 29.84 in 10.0 mi South 11.5 mph 25.3 mph N/A Rain Light Rain
2:35 AM 69.4 °F 57.7 °F 66% 29.85 in 10.0 mi SSW 15.0 mph 21.9 mph N/A   Overcast
2:55 AM 68.9 °F 58.6 °F 70% 29.83 in 10.0 mi SSW 11.5 mph 24.2 mph N/A   Overcast
3:15 AM 68.4 °F 58.5 °F 71% 29.82 in 10.0 mi SSW 9.2 mph 18.4 mph N/A   Overcast
3:35 AM 68.4 °F 58.1 °F 70% 29.83 in 10.0 mi SSW 10.4 mph 18.4 mph N/A   Overcast
3:55 AM 68.5 °F 57.4 °F 67% 29.83 in 10.0 mi South 12.7 mph 20.7 mph N/A   Overcast
4:15 AM 68.4 °F 56.7 °F 66% 29.82 in 10.0 mi SSW 16.1 mph 25.3 mph N/A   Overcast
4:35 AM 68.0 °F 57.0 °F 68% 29.81 in 10.0 mi SSW 11.5 mph 16.1 mph N/A   Overcast
4:55 AM 67.6 °F 57.2 °F 69% 29.81 in 10.0 mi SSW 10.4 mph - N/A   Overcast
5:15 AM 67.5 °F 57.2 °F 70% 29.81 in 10.0 mi SSW 9.2 mph 17.3 mph N/A   Overcast
5:35 AM 67.3 °F 57.2 °F 70% 29.81 in 10.0 mi SSW 5.8 mph - N/A   Overcast
5:55 AM 67.5 °F 57.4 °F 70% 29.81 in 10.0 mi SSW 16.1 mph 21.9 mph N/A   Overcast
6:15 AM 67.3 °F 58.1 °F 72% 29.81 in 10.0 mi SSW 16.1 mph 23.0 mph N/A   Overcast
6:35 AM 66.7 °F 58.5 °F 75% 29.80 in 10.0 mi South 9.2 mph - N/A   Overcast
6:55 AM 66.4 °F 58.5 °F 76% 29.80 in 10.0 mi SSW 9.2 mph 17.3 mph N/A   Overcast
7:15 AM 66.6 °F 59.0 °F 77% 29.80 in 10.0 mi South 8.1 mph - N/A   Overcast
7:35 AM 66.7 °F 59.2 °F 77% 29.80 in 10.0 mi SSW 6.9 mph - N/A   Overcast
7:55 AM 66.9 °F 59.4 °F 77% 29.80 in 10.0 mi SSW 5.8 mph - N/A Rain Light Rain
8:15 AM 64.4 °F 61.2 °F 89% 29.82 in 5.0 mi WSW 4.6 mph - N/A   Drizzle
8:35 AM 63.5 °F 61.7 °F 94% 29.82 in 5.0 mi WSW 4.6 mph - N/A   Light Drizzle
8:55 AM 63.0 °F 62.1 °F 97% 29.84 in 5.0 mi WSW 5.8 mph - N/A   Drizzle
9:15 AM 63.5 °F 61.9 °F 94% 29.85 in 7.0 mi WSW 5.8 mph - N/A   Drizzle
9:35 AM 63.5 °F 62.4 °F 96% 29.85 in 5.0 mi WSW 3.5 mph - N/A Rain Rain
9:55 AM 63.5 °F 62.6 °F 97% 29.86 in 10.0 mi SW 3.5 mph - N/A   Overcast
10:15 AM 63.9 °F 62.1 °F 94% 29.86 in 10.0 mi Calm Calm - N/A Rain Rain
10:35 AM 63.5 °F 61.3 °F 93% 29.85 in 7.0 mi Calm Calm - N/A Rain Light Rain
10:55 AM 63.5 °F 62.4 °F 96% 29.85 in 10.0 mi Calm Calm - N/A Rain Light Rain
11:15 AM 63.5 °F 62.8 °F 97% 29.83 in 10.0 mi Calm Calm - N/A   Overcast
11:35 AM 64.4 °F 62.8 °F 94% 29.83 in 10.0 mi Calm Calm - N/A   Overcast
11:55 AM 64.6 °F 62.1 °F 92% 29.83 in 10.0 mi Calm Calm - N/A   Mostly Cloudy
12:15 PM 66.4 °F 60.4 °F 81% 29.82 in 10.0 mi Calm Calm - N/A   Scattered Clouds
12:35 PM 68.7 °F 61.7 °F 78% 29.81 in 10.0 mi Calm Calm - N/A   Clear
12:55 PM 69.3 °F 60.1 °F 72% 29.79 in 10.0 mi Calm Calm - N/A   Clear
1:15 PM 70.9 °F 60.6 °F 70% 29.78 in 10.0 mi SSE 3.5 mph - N/A   Scattered Clouds
1:35 PM 71.4 °F 59.0 °F 65% 29.77 in 10.0 mi SSE 4.6 mph - N/A   Scattered Clouds
1:55 PM 72.1 °F 59.7 °F 65% 29.77 in 10.0 mi SSE 6.9 mph - N/A   Scattered Clouds
2:15 PM 73.2 °F 59.4 °F 62% 29.75 in 10.0 mi South 5.8 mph - N/A   Scattered Clouds
2:35 PM 73.6 °F 56.1 °F 54% 29.75 in 10.0 mi SSE 4.6 mph - N/A   Clear
2:55 PM 71.1 °F 59.4 °F 66% 29.74 in 10.0 mi ESE 12.7 mph - N/A   Scattered Clouds
3:15 PM 72.7 °F 59.4 °F 63% 29.74 in 10.0 mi SSE 10.4 mph - N/A   Scattered Clouds
3:35 PM 72.5 °F 59.0 °F 62% 29.73 in 10.0 mi SE 8.1 mph - N/A   Clear
3:55 PM 72.0 °F 58.1 °F 62% 29.73 in 10.0 mi SSE 5.8 mph - N/A   Clear
4:15 PM 71.6 °F 57.9 °F 62% 29.72 in 10.0 mi SE 6.9 mph - N/A   Clear
5:55 PM 68.2 °F 58.1 °F 70% 29.74 in 10.0 mi SE 4.6 mph - N/A   Clear
6:15 PM 66.2 °F 58.3 °F 76% 29.75 in 10.0 mi Calm Calm - N/A   Clear
6:35 PM 64.2 °F 58.5 °F 82% 29.75 in 10.0 mi Calm Calm - N/A   Clear
6:55 PM 60.8 °F 57.9 °F 90% 29.75 in 10.0 mi Calm Calm - N/A   Clear
7:15 PM 59.2 °F 57.4 °F 94% 29.76 in 10.0 mi Calm Calm - N/A   Clear
7:35 PM 61.0 °F 58.3 °F 91% 29.77 in 10.0 mi West 3.5 mph - N/A   Clear
7:55 PM 62.2 °F 58.3 °F 87% 29.77 in 10.0 mi West 5.8 mph - N/A   Clear
8:15 PM 61.7 °F 58.6 °F 90% 29.77 in 10.0 mi SW 4.6 mph - N/A   Clear
8:35 PM 61.7 °F 59.0 °F 91% 29.78 in 10.0 mi Calm Calm - N/A   Clear
8:55 PM 61.5 °F 59.2 °F 92% 29.78 in 10.0 mi SW 3.5 mph - N/A   Clear
9:15 PM 60.3 °F 58.6 °F 94% 29.78 in 10.0 mi Calm Calm - N/A   Clear
9:35 PM 56.8 °F 55.6 °F 96% 29.78 in 7.0 mi Calm Calm - N/A   Clear
9:55 PM 53.8 °F 53.2 °F 98% 29.79 in 10.0 mi Calm Calm - N/A   Clear
10:15 PM 53.2 °F 53.2 °F 100% 29.79 in 10.0 mi Calm Calm - N/A   Clear
10:35 PM 56.5 °F 56.5 °F 100% 29.80 in 7.0 mi SW 6.9 mph - N/A   Clear
10:55 PM 59.4 °F 59.4 °F 100% 29.80 in 10.0 mi West 3.5 mph - N/A   Clear
11:15 PM 59.0 °F 58.8 °F 99% 29.80 in 10.0 mi WSW 5.8 mph - N/A   Scattered Clouds
11:35 PM 59.2 °F 59.0 °F 99% 29.80 in 10.0 mi WSW 4.6 mph - N/A   Mostly Cloudy
11:55 PM 58.1 °F 57.4 °F 97% 29.80 in 10.0 mi West 3.5 mph - N/A   Scattered Clouds